TimeMST,TemperatureF,Dew PointF,Humidity,Sea Level PressureIn,VisibilityMPH,Wind Direction,Wind SpeedMPH,Gust SpeedMPH,PrecipitationIn,Events,Conditions,WindDirDegrees,DateUTC
12:53 AM,35.1,28.9,78,29.96,10.0,NNW,4.6,-,N/A,,Clear,330,2012-11-21 07:53:00
1:53 AM,36.0,28.0,73,29.96,10.0,North,4.6,-,N/A,,Clear,10,2012-11-21 08:53:00
2:53 AM,32.0,26.1,79,29.94,10.0,NNW,6.9,-,N/A,,Clear,330,2012-11-21 09:53:00
3:53 AM,30.9,27.0,85,29.94,10.0,NW,8.1,-,N/A,,Clear,320,2012-11-21 10:53:00
4:53 AM,30.0,26.1,85,29.95,10.0,NW,8.1,-,N/A,,Clear,310,2012-11-21 11:53:00
5:53 AM,28.9,26.1,89,29.95,10.0,NW,9.2,-,N/A,,Clear,310,2012-11-21 12:53:00
6:53 AM,28.0,24.1,85,29.94,10.0,Calm,Calm,-,N/A,,Clear,0,2012-11-21 13:53:00
7:53 AM,32.0,26.1,79,29.91,10.0,SSW,5.8,-,N/A,,Clear,200,2012-11-21 14:53:00
8:53 AM,41.0,30.9,67,29.88,10.0,NW,9.2,-,N/A,,Clear,320,2012-11-21 15:53:00
9:53 AM,43.0,28.9,58,29.88,10.0,NNW,4.6,-,N/A,,Clear,330,2012-11-21 16:53:00
10:53 AM,48.0,30.0,50,29.83,10.0,Calm,Calm,-,N/A,,Clear,0,2012-11-21 17:53:00
11:53 AM,53.1,32.0,45,29.79,10.0,ESE,4.6,-,N/A,,Clear,110,2012-11-21 18:53:00
12:53 PM,54.0,25.0,33,29.78,10.0,SW,3.5,-,N/A,,Clear,220,2012-11-21 19:53:00
1:53 PM,57.0,24.1,28,29.77,10.0,West,10.4,19.6,N/A,,Clear,260,2012-11-21 20:53:00
2:53 PM,55.9,21.9,27,29.79,10.0,West,12.7,26.5,N/A,,Partly Cloudy,260,2012-11-21 21:53:00
3:48 PM,59.0,21.2,23,29.82,10.0,WNW,12.7,21.9,N/A,,Overcast,300,2012-11-21 22:48:00
3:53 PM,59.0,21.0,23,29.78,10.0,West,10.4,-,N/A,,Overcast,280,2012-11-21 22:53:00
4:53 PM,53.1,24.1,32,29.82,10.0,WNW,6.9,-,N/A,,Overcast,290,2012-11-21 23:53:00
5:53 PM,53.1,25.0,34,29.84,10.0,West,15.0,-,N/A,,Overcast,280,2012-11-22 00:53:00
6:53 PM,48.0,25.0,41,29.86,10.0,West,12.7,-,N/A,,Clear,270,2012-11-22 01:53:00
7:53 PM,45.0,24.1,44,29.85,10.0,West,8.1,-,N/A,,Clear,260,2012-11-22 02:53:00
8:53 PM,39.9,25.0,55,29.84,10.0,WNW,13.8,-,N/A,,Clear,290,2012-11-22 03:53:00
9:53 PM,37.9,28.9,70,29.87,10.0,NW,13.8,-,N/A,,Partly Cloudy,320,2012-11-22 04:53:00
10:53 PM,37.9,28.9,70,29.85,10.0,NW,12.7,-,N/A,,Clear,310,2012-11-22 05:53:00
11:53 PM,37.9,28.0,68,29.86,10.0,NNW,15.0,-,N/A,,Partly Cloudy,330,2012-11-22 06:53:00